Starlink 32453

operational
NORAD ID: 61671 Int'l Des: 2024-193 Owner: SPXS Country: US Constellation: starlink
LEOCIRCULAR

关于 Starlink 32453

正在加载描述...

实时位置

正在加载3D地球...

即将过境

高度历史

Altitude vs Time

uPlot chart will show altitude changes over time

两行轨道根数

1 61671U 24193L 25351.69127865 .00010959 00000-0 38227-3 0 9999
2 61671 53.1602 111.7895 0001678 67.3922 292.7256 15.30142554 63971
Epoch: Dec 17, 2025 • Age: 22 hours

当前状态

高度 477.7 km
速度 7.63 km/s
星下点 39.33°N, 163.81°W
发射日期 Oct 26, 2024
运行时间 1.1 years
类型 internet

技术详情

分类 Payload
质量 730.00 kg
干质量 700.00 kg
总质量 730.00 kg
长度 0.30 m
直径 4.10 m
跨度 29.00 m
形状 Box + pan
制造商 SPXS
平台类型 Starlink V2M
阶段状态 In Orbit
所有者/国家 SPXS/US

大型星座

Loading constellations...